This is the latest recevied weather packets stored in our database for station/object EA5JUX. If no packets are shown the sender has not sent any weather packets the latest 10 day(s).
| Time | Temp. | Humidity | Pressure | Rain* | Wind** | Luminosity | Snow |
|---|---|---|---|---|---|---|---|
| 1787702202 | 27.22° C | 58% | 1011.9 hPa | 0 mm | - | - | - |
| 1787701902 | 27.22° C | 55% | 1012.2 hPa | 0 mm | - | - | - |
| 1787701602 | 27.22° C | 51% | 1012 hPa | 0 mm | - | - | - |
| 1787701301 | 27.22° C | 49% | 1012 hPa | 0 mm | - | - | - |
| 1787701001 | 27.22° C | 48% | 1011.8 hPa | 0 mm | - | - | - |
| 1787700702 | 27.22° C | 48% | 1011.7 hPa | 0 mm | - | - | - |
| 1787700419 | 26.67° C | 49% | 1011.7 hPa | 0 mm | - | - | - |
| 1787700124 | 25.56° C | 55% | 1012 hPa | 0 mm | - | - | - |
| 1787699801 | 26.11° C | 59% | 1011.7 hPa | 0 mm | - | - | - |
| 1787699517 | 26.11° C | 60% | 1011.3 hPa | 0 mm | - | - | - |
| 1787699202 | 26.11° C | 62% | 1011.1 hPa | 0 mm | - | - | - |
| 1787698901 | 26.11° C | 65% | 1011.5 hPa | 0 mm | - | - | - |
| 1787698612 | 26.11° C | 66% | 1010.8 hPa | 0 mm | - | - | - |
| 1787698302 | 26.11° C | 67% | 1011.2 hPa | 0 mm | - | - | - |
| 1787698023 | 26.67° C | 64% | 1011.9 hPa | 0 mm | - | - | - |
| 1787697710 | 26.67° C | 66% | 1011.9 hPa | 0 mm | - | - | - |
| 1787697402 | 26.11° C | 67% | 1012.1 hPa | 0 mm | - | - | - |
| 1787697101 | 26.11° C | 67% | 1012.3 hPa | 0 mm | - | - | - |
| 1787696801 | 26.67° C | 67% | 1012.3 hPa | 0 mm | - | - | - |
| 1787696502 | 26.67° C | 67% | 1012.4 hPa | 0 mm | - | - | - |
| 1787696202 | 26.67° C | 67% | 1012.5 hPa | 0 mm | - | - | - |
| 1787695902 | 26.67° C | 66% | 1012.3 hPa | 0 mm | - | - | - |
| 1787695602 | 26.11° C | 66% | 1012.4 hPa | 0 mm | - | - | - |
| 1787695302 | 26.67° C | 67% | 1012.4 hPa | 0 mm | - | - | - |
| 1787695002 | 26.67° C | 68% | 1012.4 hPa | 0 mm | - | - | - |
* Rain latest hour (hover to see other rain measurements)
** Current wind speed in m/s (hover to see current wind gust speed)